DLH72M EDDF-LOWS

Flight info

Callsign DLH72M
Flight time 0h 45m
Altitude 29000
Route CINDY8S/18 CINDY Z74 HAREM DCT ASLEP DCT TAKUT DCT DINKU L603 OLETU T702 BADIT BADIT2R
Aircraft A320/M-SDE3FGHIRWY/LB1

Departure

Time 2026-05-06 17:28
Airport Frankfurt Main Airport (EDDF)

Arrival

Time 2026-05-06 18:13
Airport Salzburg Airport (LOWS)
Time Latitude Longitude Altitude Speed Heading
2026-05-06 16:49 50.04390 8.56168 356 ft 0 kts 155°
2026-05-06 17:10 50.04412 8.56152 362 ft 4 kts 153°
2026-05-06 17:10 50.04436 8.56136 357 ft 4 kts 179°
2026-05-06 17:11 50.04460 8.56155 358 ft 4 kts 238°
2026-05-06 17:11 50.04463 8.56163 364 ft 0 kts 250°
2026-05-06 17:11 50.04455 8.56127 362 ft 4 kts 249°
2026-05-06 17:11 50.04453 8.56118 361 ft 0 kts 249°
2026-05-06 17:18 50.04453 8.56116 361 ft 1 kts 248°
2026-05-06 17:18 50.04443 8.56080 359 ft 5 kts 249°
2026-05-06 17:19 50.04409 8.56031 359 ft 8 kts 198°
2026-05-06 17:19 50.04354 8.56048 358 ft 8 kts 161°
2026-05-06 17:19 50.04281 8.56064 354 ft 14 kts 203°
2026-05-06 17:19 50.04233 8.55913 359 ft 17 kts 249°
2026-05-06 17:20 50.04188 8.55724 357 ft 20 kts 249°
2026-05-06 17:20 50.04138 8.55514 358 ft 20 kts 250°
2026-05-06 17:20 50.04090 8.55315 359 ft 21 kts 249°
2026-05-06 17:20 50.04034 8.55080 359 ft 26 kts 250°
2026-05-06 17:21 50.03968 8.54804 356 ft 28 kts 249°
2026-05-06 17:21 50.03900 8.54519 350 ft 24 kts 249°
2026-05-06 17:21 50.03842 8.54327 353 ft 18 kts 235°
2026-05-06 17:21 50.03786 8.54161 351 ft 17 kts 249°
2026-05-06 17:22 50.03743 8.53981 351 ft 18 kts 250°
2026-05-06 17:22 50.03697 8.53789 346 ft 20 kts 249°
2026-05-06 17:22 50.03644 8.53579 343 ft 22 kts 248°
2026-05-06 17:22 50.03593 8.53370 337 ft 17 kts 249°
2026-05-06 17:23 50.03549 8.53186 336 ft 19 kts 250°
2026-05-06 17:23 50.03506 8.53004 338 ft 16 kts 249°
2026-05-06 17:23 50.03471 8.52869 337 ft 14 kts 248°
2026-05-06 17:23 50.03456 8.52814 333 ft 4 kts 247°
2026-05-06 17:24 50.03446 8.52778 333 ft 3 kts 247°
2026-05-06 17:24 50.03437 8.52743 333 ft 3 kts 248°
2026-05-06 17:24 50.03436 8.52738 333 ft 0 kts 249°
2026-05-06 17:24 50.03428 8.52707 331 ft 7 kts 249°
2026-05-06 17:25 50.03401 8.52625 333 ft 9 kts 223°
2026-05-06 17:25 50.03360 8.52596 334 ft 0 kts 183°
2026-05-06 17:27 50.03351 8.52595 335 ft 7 kts 182°
2026-05-06 17:27 50.03057 8.52594 336 ft 81 kts 179°
2026-05-06 17:27 50.02271 8.52603 335 ft 142 kts 180°
2026-05-06 17:27 50.01131 8.52621 516 ft 175 kts 180°
2026-05-06 17:28 49.99913 8.52648 1273 ft 175 kts 181°
2026-05-06 17:28 49.98655 8.52651 1791 ft 191 kts 182°
2026-05-06 17:28 49.97258 8.52854 2111 ft 215 kts 161°
2026-05-06 17:28 49.96030 8.54309 2556 ft 234 kts 123°
2026-05-06 17:29 49.95239 8.56523 3471 ft 235 kts 120°
2026-05-06 17:29 49.94460 8.58763 4381 ft 238 kts 117°
2026-05-06 17:29 49.94011 8.61289 5106 ft 255 kts 97°
2026-05-06 17:29 49.93889 8.64150 5684 ft 274 kts 95°
2026-05-06 17:30 49.93653 8.67112 6512 ft 280 kts 108°
2026-05-06 17:30 49.92845 8.69848 7397 ft 281 kts 127°
2026-05-06 17:30 49.91524 8.72017 8309 ft 281 kts 145°
2026-05-06 17:30 49.89924 8.73780 9226 ft 284 kts 146°
2026-05-06 17:31 49.88454 8.75868 10076 ft 291 kts 132°
2026-05-06 17:31 49.87280 8.78570 10456 ft 315 kts 121°
2026-05-06 17:31 49.86171 8.81648 10714 ft 338 kts 121°
2026-05-06 17:31 49.85014 8.84876 10858 ft 347 kts 120°
2026-05-06 17:32 49.83833 8.88173 11642 ft 350 kts 121°
2026-05-06 17:32 49.82596 8.91433 12442 ft 354 kts 123°
2026-05-06 17:32 49.81281 8.94684 13211 ft 357 kts 124°
2026-05-06 17:32 49.79925 8.97934 13934 ft 361 kts 124°
2026-05-06 17:33 49.78549 9.01208 14640 ft 364 kts 124°
2026-05-06 17:33 49.77163 9.04511 15340 ft 368 kts 124°
2026-05-06 17:33 49.75771 9.07850 16025 ft 370 kts 124°
2026-05-06 17:33 49.74376 9.11212 16709 ft 373 kts 124°
2026-05-06 17:34 49.72969 9.14609 17410 ft 376 kts 124°
2026-05-06 17:34 49.71556 9.18028 18092 ft 379 kts 124°
2026-05-06 17:34 49.70130 9.21474 18671 ft 382 kts 124°
2026-05-06 17:34 49.68692 9.24942 19225 ft 385 kts 125°
2026-05-06 17:35 49.67237 9.28438 19777 ft 388 kts 125°
2026-05-06 17:35 49.65770 9.31959 20320 ft 392 kts 125°
2026-05-06 17:35 49.64291 9.35512 20860 ft 395 kts 125°
2026-05-06 17:36 49.61541 9.42920 21906 ft 404 kts 114°
2026-05-06 17:36 49.60631 9.47048 22396 ft 409 kts 110°
2026-05-06 17:36 49.59745 9.51239 22866 ft 413 kts 111°
2026-05-06 17:36 49.58840 9.55469 23346 ft 416 kts 111°
2026-05-06 17:37 49.57923 9.59717 23763 ft 419 kts 111°
2026-05-06 17:37 49.57010 9.63934 24197 ft 422 kts 111°
2026-05-06 17:37 49.56077 9.68230 24656 ft 422 kts 111°
2026-05-06 17:37 49.55146 9.72517 25115 ft 423 kts 111°
2026-05-06 17:38 49.54212 9.76825 25557 ft 424 kts 111°
2026-05-06 17:38 49.53194 9.81083 25979 ft 424 kts 117°
2026-05-06 17:38 49.51781 9.85056 26391 ft 422 kts 127°
2026-05-06 17:38 49.50006 9.88637 26781 ft 422 kts 132°
2026-05-06 17:39 49.48147 9.92140 27191 ft 423 kts 133°
2026-05-06 17:39 49.46285 9.95660 27604 ft 425 kts 133°
2026-05-06 17:39 49.44421 9.99190 28000 ft 427 kts 133°
2026-05-06 17:39 49.42547 10.02736 28387 ft 428 kts 133°
2026-05-06 17:40 49.40662 10.06296 28730 ft 430 kts 133°
2026-05-06 17:40 49.38778 10.09852 28806 ft 425 kts 133°
2026-05-06 17:40 49.35081 10.16834 28811 ft 419 kts 133°
2026-05-06 17:41 49.31392 10.23765 28820 ft 418 kts 133°
2026-05-06 17:41 49.27709 10.30662 28823 ft 419 kts 133°
2026-05-06 17:42 49.24011 10.37546 28836 ft 418 kts 135°
2026-05-06 17:42 49.19928 10.43798 28838 ft 415 kts 140°
2026-05-06 17:43 49.15795 10.49939 28846 ft 414 kts 140°
2026-05-06 17:43 49.11656 10.56079 28840 ft 414 kts 140°
2026-05-06 17:44 49.07564 10.62138 28298 ft 411 kts 140°
2026-05-06 17:44 49.05477 10.65228 27793 ft 416 kts 140°
2026-05-06 17:44 49.03421 10.68267 27425 ft 418 kts 140°
2026-05-06 17:45 49.01337 10.71338 27064 ft 415 kts 140°
2026-05-06 17:45 48.99267 10.74383 26700 ft 413 kts 140°
2026-05-06 17:45 48.97203 10.77408 26341 ft 410 kts 140°
2026-05-06 17:45 48.95151 10.80407 25967 ft 408 kts 140°
2026-05-06 17:46 48.93112 10.83388 25621 ft 406 kts 140°
2026-05-06 17:46 48.91078 10.86362 25278 ft 404 kts 140°
2026-05-06 17:46 48.89058 10.89319 24937 ft 402 kts 139°
2026-05-06 17:46 48.87050 10.92264 24584 ft 400 kts 139°
2026-05-06 17:47 48.85052 10.95195 24259 ft 398 kts 139°
2026-05-06 17:47 48.83063 10.98105 23933 ft 396 kts 139°
2026-05-06 17:47 48.81075 11.01000 23597 ft 397 kts 139°
2026-05-06 17:47 48.79078 11.03903 23246 ft 397 kts 139°
2026-05-06 17:48 48.77083 11.06802 22861 ft 396 kts 139°
2026-05-06 17:48 48.75108 11.09667 22491 ft 391 kts 138°
2026-05-06 17:48 48.73148 11.12499 22146 ft 388 kts 139°
2026-05-06 17:48 48.71197 11.15315 21884 ft 387 kts 139°
2026-05-06 17:49 48.69249 11.18123 21626 ft 386 kts 139°
2026-05-06 17:49 48.67308 11.20920 21365 ft 385 kts 139°
2026-05-06 17:49 48.65373 11.23709 21107 ft 384 kts 138°
2026-05-06 17:49 48.63609 11.26670 20802 ft 385 kts 130°
2026-05-06 17:50 48.62008 11.29910 20553 ft 384 kts 129°
2026-05-06 17:50 48.60414 11.33137 20305 ft 383 kts 129°
2026-05-06 17:50 48.58815 11.36355 20013 ft 384 kts 130°
2026-05-06 17:50 48.57206 11.39576 19799 ft 384 kts 130°
2026-05-06 17:51 48.55597 11.42790 19788 ft 384 kts 130°
2026-05-06 17:51 48.53986 11.46006 19603 ft 381 kts 130°
2026-05-06 17:51 48.52395 11.49189 19081 ft 379 kts 130°
2026-05-06 17:51 48.50815 11.52350 18600 ft 376 kts 129°
2026-05-06 17:52 48.49241 11.55501 18117 ft 374 kts 130°
2026-05-06 17:52 48.47706 11.58670 17528 ft 374 kts 126°
2026-05-06 17:52 48.46432 11.62085 16989 ft 374 kts 118°
2026-05-06 17:52 48.45468 11.65724 16465 ft 373 kts 113°
2026-05-06 17:53 48.44593 11.69393 15964 ft 372 kts 112°
2026-05-06 17:53 48.43711 11.73057 15783 ft 372 kts 113°
2026-05-06 17:53 48.42820 11.76732 15809 ft 374 kts 113°
2026-05-06 17:53 48.41937 11.80364 15811 ft 375 kts 113°
2026-05-06 17:54 48.41041 11.84048 15812 ft 375 kts 113°
2026-05-06 17:54 48.40144 11.87735 15810 ft 375 kts 113°
2026-05-06 17:54 48.39251 11.91416 15810 ft 375 kts 113°
2026-05-06 17:54 48.38355 11.95103 15811 ft 375 kts 113°
2026-05-06 17:55 48.37460 11.98780 15809 ft 375 kts 113°
2026-05-06 17:55 48.36560 12.02469 15808 ft 375 kts 113°
2026-05-06 17:55 48.35659 12.06149 15807 ft 375 kts 113°
2026-05-06 17:55 48.34755 12.09837 15670 ft 376 kts 113°
2026-05-06 17:56 48.33851 12.13531 15071 ft 376 kts 114°
2026-05-06 17:56 48.32947 12.17229 14502 ft 376 kts 114°
2026-05-06 17:56 48.32043 12.20915 13929 ft 376 kts 114°
2026-05-06 17:56 48.31440 12.23361 13562 ft 376 kts 114°
2026-05-06 17:57 48.30531 12.27038 12963 ft 375 kts 114°
2026-05-06 17:57 48.29625 12.30708 12343 ft 374 kts 114°
2026-05-06 17:57 48.28720 12.34360 11763 ft 371 kts 114°
2026-05-06 17:57 48.27541 12.39108 11100 ft 365 kts 114°
2026-05-06 17:58 48.26944 12.41509 10772 ft 362 kts 114°
2026-05-06 17:58 48.26071 12.45019 10268 ft 357 kts 114°
2026-05-06 17:58 48.25208 12.48485 9789 ft 352 kts 115°
2026-05-06 17:58 48.24372 12.51856 9259 ft 336 kts 114°
2026-05-06 17:59 48.23573 12.55071 8775 ft 319 kts 114°
2026-05-06 17:59 48.22817 12.58115 8346 ft 304 kts 114°
2026-05-06 17:59 48.22096 12.61009 7892 ft 290 kts 114°
2026-05-06 17:59 48.21299 12.63709 7460 ft 278 kts 127°
2026-05-06 18:00 48.20010 12.65805 7051 ft 272 kts 146°
2026-05-06 18:00 48.18511 12.67505 6744 ft 267 kts 146°
2026-05-06 18:00 48.17045 12.69144 6476 ft 261 kts 146°
2026-05-06 18:00 48.15619 12.70728 6214 ft 256 kts 146°
2026-05-06 18:01 48.14188 12.72317 5939 ft 255 kts 146°
2026-05-06 18:01 48.12762 12.73902 5658 ft 254 kts 146°
2026-05-06 18:01 48.11356 12.75464 5387 ft 249 kts 146°
2026-05-06 18:01 48.09983 12.76990 5111 ft 244 kts 145°
2026-05-06 18:02 48.08644 12.78478 4955 ft 237 kts 145°
2026-05-06 18:02 48.07343 12.79923 4934 ft 226 kts 145°
2026-05-06 18:02 48.06125 12.81278 4938 ft 211 kts 146°
2026-05-06 18:02 48.04983 12.82545 4941 ft 197 kts 147°
2026-05-06 18:03 48.03911 12.83735 4966 ft 190 kts 146°
2026-05-06 18:03 48.02845 12.84912 4928 ft 191 kts 145°
2026-05-06 18:03 48.01771 12.86098 4927 ft 192 kts 145°
2026-05-06 18:03 48.00718 12.87332 4930 ft 193 kts 138°
2026-05-06 18:04 47.99832 12.88847 4932 ft 194 kts 126°
2026-05-06 18:04 47.99175 12.90612 4935 ft 196 kts 114°
2026-05-06 18:04 47.98777 12.92531 4935 ft 197 kts 103°
2026-05-06 18:04 47.98579 12.94527 4930 ft 190 kts 99°
2026-05-06 18:05 47.98382 12.96458 4930 ft 187 kts 104°
2026-05-06 18:05 47.97957 12.98274 4936 ft 185 kts 118°
2026-05-06 18:05 47.97249 12.99868 4930 ft 184 kts 133°
2026-05-06 18:05 47.96311 13.01148 4930 ft 183 kts 146°
2026-05-06 18:06 47.95199 13.02042 4934 ft 182 kts 160°
2026-05-06 18:06 47.93982 13.02522 4945 ft 181 kts 169°
2026-05-06 18:06 47.92803 13.02880 4945 ft 160 kts 169°
2026-05-06 18:06 47.91755 13.03203 4930 ft 149 kts 169°
2026-05-06 18:07 47.90753 13.03511 4933 ft 145 kts 174°
2026-05-06 18:07 47.89767 13.03813 4932 ft 145 kts 172°
2026-05-06 18:07 47.88780 13.04116 4937 ft 144 kts 172°
2026-05-06 18:07 47.87797 13.04416 4935 ft 144 kts 173°
2026-05-06 18:08 47.86813 13.04716 4827 ft 144 kts 173°
2026-05-06 18:08 47.85833 13.05014 4617 ft 143 kts 172°
2026-05-06 18:08 47.84858 13.05312 4431 ft 143 kts 173°
2026-05-06 18:08 47.83882 13.05611 4226 ft 144 kts 173°
2026-05-06 18:09 47.82893 13.05911 4032 ft 145 kts 173°
2026-05-06 18:09 47.81903 13.06212 3842 ft 145 kts 173°
2026-05-06 18:09 47.80928 13.06509 3730 ft 144 kts 172°
2026-05-06 18:09 47.79952 13.06806 3541 ft 143 kts 172°
2026-05-06 18:10 47.78975 13.07106 3343 ft 144 kts 172°
2026-05-06 18:10 47.77994 13.07406 3145 ft 144 kts 171°
2026-05-06 18:10 47.77010 13.07654 2934 ft 143 kts 185°
2026-05-06 18:10 47.76081 13.07290 2750 ft 137 kts 212°
2026-05-06 18:11 47.75403 13.06310 2546 ft 136 kts 242°
2026-05-06 18:11 47.75142 13.04995 2360 ft 132 kts 270°
2026-05-06 18:11 47.75320 13.03679 2160 ft 129 kts 297°
2026-05-06 18:11 47.75890 13.02650 1986 ft 132 kts 323°
2026-05-06 18:12 47.76717 13.02076 1786 ft 133 kts 338°
2026-05-06 18:12 47.77578 13.01537 1583 ft 133 kts 336°
2026-05-06 18:12 47.78412 13.00979 1439 ft 130 kts 337°
2026-05-06 18:12 47.79122 13.00533 1417 ft 74 kts 337°
2026-05-06 18:13 47.79377 13.00369 1425 ft 16 kts 334°
2026-05-06 18:13 47.79402 13.00234 1425 ft 16 kts 250°
2026-05-06 18:13 47.79364 13.00092 1422 ft 13 kts 248°
2026-05-06 18:13 47.79327 12.99973 1422 ft 12 kts 233°
2026-05-06 18:14 47.79258 12.99965 1422 ft 10 kts 160°
2026-05-06 18:14 47.79197 13.00002 1422 ft 9 kts 156°
2026-05-06 18:14 47.79145 13.00039 1422 ft 7 kts 138°
2026-05-06 18:14 47.79129 13.00103 1422 ft 6 kts 102°
2026-05-06 18:15 47.79124 13.00145 1422 ft 0 kts 101°